KG5DWX-13 Weather Reports


Display with metric or nautical units.
time (UTC)temp
F
wind
direction
speed
MPH
gust
MPH
rain 1hr
in
rain 24hr
in
rain mn
in
humidity
%
barometer
mb
20220126120112 41 0 0.0 3.0 0.00 0.00 0.00 86 1023.5
20220126115557 41 0 0.0 3.0 0.00 0.00 0.00 86 1023.5
20220126114527 41 0 0.0 10.0 0.00 0.00 0.00 86 1023.5
20220126114012 42 0 0.0 2.0 0.00 0.00 0.00 86 1023.5
20220126113457 42 0 0.0 6.0 0.00 0.00 0.00 86 1023.4
20220126112942 42 0 0.0 6.0 0.00 0.00 0.00 87 1023.3
20220126111912 42 0 0.0 5.0 0.00 0.00 0.00 86 1023.2
20220126111357 42 0 0.0 4.0 0.00 0.00 0.00 87 1023.0
20220126110842 42 0 0.0 3.0 0.00 0.00 0.00 86 1022.9
20220126110327 42 0 0.0 3.0 0.00 0.00 0.00 86 1022.7
20220126105812 42 0 0.0 3.0 0.00 0.00 0.00 86 1022.8
20220126105258 43 0 0.0 1.0 0.00 0.00 0.00 86 1022.8
20220126104742 43 0 0.0 1.0 0.00 0.00 0.00 86 1022.8
20220126104227 43 0 0.0 1.0 0.00 0.00 0.00 86 1022.8
20220126103712 43 0 0.0 1.0 0.00 0.00 0.00 86 1022.8
20220126103157 43 0 0.0 3.0 0.00 0.00 0.00 87 1022.9
20220126102642 44 0 0.0 3.0 0.00 0.00 0.00 87 1022.9
20220126102127 44 0 0.0 3.0 0.00 0.00 0.00 88 1022.8
20220126101612 44 0 0.0 4.0 0.00 0.00 0.00 88 1022.7
20220126101058 44 0 0.0 6.0 0.00 0.00 0.00 87 1022.7
20220126100544 44 0 0.0 2.0 0.00 0.00 0.00 88 1022.6
20220126100028 44 0 0.0 2.0 0.00 0.00 0.00 88 1022.5
20220126095512 44 0 0.0 2.0 0.00 0.00 0.00 88 1022.5
20220126094958 44 0 0.0 4.0 0.00 0.00 0.00 88 1022.4
20220126094443 44 0 0.0 4.0 0.00 0.00 0.00 88 1022.4
20220126093928 44 0 0.0 0.0 0.00 0.00 0.00 88 1022.4
20220126093413 44 0 0.0 0.0 0.00 0.00 0.00 87 1022.4
20220126092858 44 0 0.0 0.0 0.00 0.00 0.00 88 1022.3
20220126092343 44 0 0.0 0.0 0.00 0.00 0.00 88 1022.3
20220126091828 44 0 0.0 0.0 0.00 0.00 0.00 87 1022.3
20220126091313 44 0 0.0 1.0 0.00 0.00 0.00 87 1022.3
20220126090758 44 0 0.0 1.0 0.00 0.00 0.00 87 1022.3
20220126090243 44 0 0.0 0.0 0.00 0.00 0.00 87 1022.3
20220126085728 44 0 0.0 0.0 0.00 0.00 0.00 87 1022.4
20220126085213 44 0 0.0 0.0 0.00 0.00 0.00 87 1022.5
20220126084658 44 0 0.0 0.0 0.00 0.00 0.00 86 1022.3
20220126084143 45 0 0.0 0.0 0.00 0.00 0.00 86 1022.3
20220126083628 45 0 0.0 0.0 0.00 0.00 0.00 86 1022.3
20220126083113 45 0 0.0 0.0 0.00 0.00 0.00 86 1022.3
20220126082558 45 0 0.0 0.0 0.00 0.00 0.00 86 1022.3
20220126082043 45 0 0.0 0.0 0.00 0.00 0.00 86 1022.3
20220126081528 45 0 0.0 0.0 0.00 0.00 0.00 86 1022.2
20220126081013 45 0 0.0 0.0 0.00 0.00 0.00 85 1022.1
20220126080458 46 0 0.0 0.0 0.00 0.00 0.00 85 1022.0
20220126075943 46 0 0.0 0.0 0.00 0.00 0.00 85 1021.9
20220126075428 46 0 0.0 0.0 0.00 0.00 0.00 85 1021.7
20220126074913 46 0 0.0 0.0 0.00 0.00 0.00 85 1021.7
20220126074358 46 0 0.0 0.0 0.00 0.00 0.00 85 1021.7
20220126073843 47 0 0.0 0.0 0.00 0.00 0.00 84 1021.7
20220126073328 47 0 0.0 1.0 0.00 0.00 0.00 84 1021.6
20220126072813 47 0 0.0 1.0 0.00 0.00 0.00 84 1021.6
20220126072259 47 0 0.0 0.0 0.00 0.00 0.00 83 1021.6
20220126071228 48 0 0.0 0.0 0.00 0.00 0.00 83 1021.6
20220126070713 48 0 0.0 0.0 0.00 0.00 0.00 83 1021.5
20220126070158 49 0 0.0 1.0 0.00 0.00 0.00 83 1021.5
20220126065643 49 0 0.0 2.0 0.00 0.00 0.00 83 1021.5
20220126065128 49 0 0.0 2.0 0.00 0.00 0.00 83 1021.5
20220126064613 49 0 0.0 1.0 0.00 0.00 0.00 83 1021.5
20220126064058 49 0 0.0 1.0 0.00 0.00 0.00 83 1021.5
20220126063543 49 0 0.0 0.0 0.00 0.00 0.00 83 1021.5
20220126063028 49 0 0.0 2.0 0.00 0.00 0.00 83 1021.4
20220126062513 49 0 0.0 4.0 0.00 0.00 0.00 83 1021.4
20220126061958 49 0 0.0 4.0 0.00 0.00 0.00 83 1021.3
20220126061443 49 0 0.0 1.0 0.00 0.00 0.00 83 1021.3
20220126060928 49 0 0.0 2.0 0.00 0.00 0.00 82 1021.4
20220126060413 50 0 0.0 2.0 0.00 0.00 0.00 82 1021.2
20220126055343 50 0 0.0 4.0 0.00 0.00 0.00 83 1021.1
20220126054828 50 0 0.0 4.0 0.00 0.00 0.00 83 1021.1
20220126054313 50 0 0.0 4.0 0.00 0.00 0.00 83 1021.1
20220126053759 50 0 0.0 4.0 0.00 0.00 0.00 82 1021.1
20220126053243 50 0 0.0 2.0 0.00 0.00 0.00 83 1021.0
20220126052728 50 0 0.0 4.0 0.00 0.00 0.00 83 1020.9
20220126052213 50 0 0.0 4.0 0.00 0.00 0.00 83 1020.9
20220126051658 50 0 0.0 3.0 0.00 0.00 0.00 82 1020.8
20220126051143 50 0 0.0 3.0 0.00 0.00 0.00 83 1020.8
20220126050628 50 0 0.0 0.0 0.00 0.00 0.00 83 1020.7
20220126050113 50 0 0.0 1.0 0.00 0.00 0.00 83 1020.7
20220126045559 50 0 0.0 3.0 0.00 0.00 0.00 83 1020.8
20220126045043 50 0 0.0 3.0 0.00 0.00 0.00 83 1020.7
20220126044528 50 0 0.0 1.0 0.00 0.00 0.00 83 1020.7
20220126044013 50 0 0.0 1.0 0.00 0.00 0.00 83 1020.7
20220126043458 50 0 0.0 0.0 0.00 0.00 0.00 83 1020.7
20220126042429 50 0 0.0 1.0 0.00 0.00 0.00 83 1020.7
20220126041913 50 0 0.0 0.0 0.00 0.00 0.00 83 1020.8
20220126033159 51 0 0.0 6.0 0.00 0.00 0.00 83 1020.2
20220126032644 51 0 0.0 6.0 0.00 0.00 0.00 83 1020.2
20220126032129 51 0 0.0 9.0 0.00 0.00 0.00 84 1020.2
20220126031614 51 0 0.0 9.0 0.00 0.00 0.00 84 1020.1
20220126031059 51 0 0.0 5.0 0.00 0.00 0.00 84 1020.1
20220126030544 51 0 0.0 1.0 0.00 0.00 0.00 84 1020.1
20220126030029 51 0 0.0 1.0 0.00 0.00 0.00 84 1020.0
20220126025514 51 0 0.0 2.0 0.00 0.00 0.00 84 1020.0
20220126024959 50 0 0.0 0.0 0.00 0.00 0.00 84 1020.0
20220126024444 50 0 0.0 0.0 0.00 0.00 0.00 84 1020.1
20220126023929 50 0 0.0 0.0 0.00 0.00 0.00 84 1020.2
20220126023414 50 0 0.0 0.0 0.00 0.00 0.00 84 1020.1
20220126022859 50 0 0.0 0.0 0.00 0.00 0.00 84 1019.8
20220126022344 50 0 0.0 0.0 0.00 0.00 0.00 84 1019.7
20220126021829 50 0 0.0 0.0 0.00 0.00 0.00 84 1019.4
20220126021314 50 0 0.0 0.0 0.00 0.00 0.00 84 1019.2
20220126020759 50 0 0.0 0.0 0.00 0.00 0.00 84 1019.0
20220126015729 50 0 0.0 0.0 0.00 0.00 0.00 84 1019.0
20220126015214 50 0 0.0 0.0 0.00 0.00 0.00 84 1019.0
20220126014144 50 0 0.0 0.0 0.00 0.00 0.00 83 1018.7
20220126013629 50 0 0.0 0.0 0.00 0.00 0.00 83 1018.5
20220126013114 50 0 0.0 0.0 0.00 0.00 0.00 83 1018.3
20220126012044 50 0 0.0 0.0 0.00 0.00 0.00 83 1018.1
20220126011530 50 0 0.0 0.0 0.00 0.00 0.00 83 1018.1
20220126011014 50 0 0.0 0.0 0.00 0.00 0.00 83 1018.1
20220126010459 50 0 0.0 0.0 0.00 0.00 0.00 83 1017.8
20220126005944 50 0 0.0 0.0 0.00 0.00 0.00 83 1017.8
20220126003845 51 0 0.0 0.0 0.00 0.00 0.00 82 1017.5
20220126003329 51 0 0.0 0.0 0.00 0.00 0.00 83 1017.4
20220126002814 51 0 0.0 1.0 0.00 0.00 0.00 83 1017.1
20220126002300 51 0 0.0 1.0 0.00 0.00 0.00 83 1017.1
20220126001229 51 0 0.0 1.0 0.00 0.00 0.00 83 1017.1
20220126000715 51 0 0.0 0.0 0.00 0.00 0.00 83 1017.1
20220126000159 51 0 0.0 0.0 0.00 0.00 0.00 82 1017.0
20220125235129 51 0 0.0 1.0 0.00 0.00 0.00 82 1017.0
20220125234614 51 0 0.0 1.0 0.00 0.00 0.00 82 1017.0
20220125234059 51 0 0.0 1.0 0.00 0.00 0.00 82 1017.0
20220125233545 51 0 0.0 0.0 0.00 0.00 0.00 82 1016.9
20220125233030 51 0 0.0 1.0 0.00 0.00 0.00 82 1016.9
20220125232515 52 0 0.0 1.0 0.00 0.00 0.00 82 1016.8
20220125231959 52 0 0.0 1.0 0.00 0.00 0.00 82 1016.8
20220125231444 52 0 0.0 5.0 0.00 0.00 0.00 82 1016.8
20220125230929 52 0 0.0 5.0 0.00 0.00 0.00 82 1016.8
20220125230414 52 0 0.0 3.0 0.00 0.00 0.00 82 1016.8
20220125225859 52 0 0.0 3.0 0.00 0.00 0.00 82 1016.7
20220125225344 52 0 0.0 0.0 0.00 0.00 0.00 82 1016.5
20220125224829 52 0 0.0 0.0 0.00 0.00 0.00 82 1016.5
20220125224314 52 0 0.0 0.0 0.00 0.00 0.00 82 1016.5
20220125223244 52 0 0.0 1.0 0.00 0.00 0.00 82 1016.5
20220125222731 52 0 0.0 1.0 0.00 0.00 0.00 82 1016.5
20220125222216 52 0 0.0 1.0 0.00 0.00 0.00 82 1016.6
20220125221700 52 0 0.0 3.0 0.00 0.00 0.00 82 1016.6
20220125221144 52 0 0.0 3.0 0.00 0.00 0.00 82 1016.5
20220125220630 52 0 0.0 2.0 0.00 0.00 0.00 82 1016.6
20220125215601 52 0 0.0 1.0 0.00 0.00 0.00 82 1016.5
20220125215045 52 0 0.0 1.0 0.00 0.00 0.00 82 1016.4
20220125214015 52 0 0.0 0.0 0.00 0.00 0.00 82 1016.4
20220125213500 52 0 0.0 0.0 0.00 0.00 0.00 83 1016.4
20220125212945 51 0 0.0 0.0 0.00 0.00 0.00 83 1016.4
20220125212430 51 0 0.0 0.0 0.00 0.00 0.00 83 1016.4
20220125211915 51 0 0.0 2.0 0.00 0.00 0.00 83 1016.4
20220125210845 52 0 0.0 1.0 0.00 0.00 0.00 83 1016.4
20220125210330 52 0 0.0 2.0 0.00 0.00 0.00 83 1016.4
20220125205815 52 0 0.0 2.0 0.00 0.00 0.00 83 1016.3
20220125204230 52 0 0.0 1.0 0.00 0.00 0.00 83 1016.3
20220125203200 52 0 0.0 0.0 0.00 0.00 0.00 83 1016.1
20220125202645 52 0 0.0 0.0 0.00 0.00 0.00 83 1016.1
20220125202130 52 0 0.0 1.0 0.00 0.00 0.00 83 1016.2
20220125200545 52 0 0.0 1.0 0.00 0.00 0.00 83 1016.1
20220125200030 52 0 0.0 0.0 0.00 0.00 0.00 82 1016.0
20220125195516 52 0 0.0 3.0 0.00 0.00 0.00 82 1016.1
20220125194445 52 0 0.0 4.0 0.00 0.00 0.00 82 1015.9
20220125193930 52 0 0.0 4.0 0.00 0.00 0.00 82 1016.1
20220125193415 52 0 0.0 1.0 0.00 0.00 0.00 82 1016.1
20220125192900 52 0 0.0 1.0 0.00 0.00 0.00 82 1016.2
20220125192345 52 0 0.0 0.0 0.00 0.00 0.00 83 1016.2
20220125191830 52 0 0.0 0.0 0.00 0.01 0.00 83 1016.3
20220125190801 52 0 0.0 1.0 0.00 0.01 0.00 83 1016.5
20220125190245 52 0 0.0 1.0 0.00 0.01 0.00 84 1016.6
20220125185730 52 0 0.0 2.0 0.00 0.02 0.00 84 1016.7
20220125185215 52 0 0.0 2.0 0.00 0.02 0.00 84 1016.8
20220125184700 52 0 0.0 0.0 0.00 0.02 0.00 84 1016.8
20220125184145 52 0 0.0 0.0 0.00 0.02 0.00 84 1016.8
20220125183630 52 0 0.0 0.0 0.00 0.03 0.00 84 1016.9
20220125183115 52 0 0.0 0.0 0.00 0.03 0.00 84 1017.0
20220125182600 52 0 0.0 0.0 0.00 0.03 0.00 84 1017.0
20220125182046 52 0 0.0 0.0 0.00 0.04 0.00 85 1017.0
20220125181016 51 0 0.0 0.0 0.00 0.04 0.00 85 1017.1
20220125175945 51 0 0.0 0.0 0.00 0.06 0.00 86 1017.3
20220125174400 50 0 0.0 0.0 0.00 0.06 0.00 87 1017.3
20220125173845 50 0 0.0 0.0 0.00 0.06 0.00 88 1017.4
20220125173330 50 0 0.0 0.0 0.00 0.07 0.00 89 1017.5
20220125172815 49 0 0.0 0.0 0.00 0.08 0.00 89 1017.7
20220125172301 49 0 0.0 0.0 0.00 0.08 0.00 89 1017.7
20220125171230 49 0 0.0 0.0 0.00 0.08 0.00 90 1017.8
20220125170715 49 0 0.0 0.0 0.00 0.08 0.00 90 1017.8
20220125170200 48 0 0.0 0.0 0.00 0.08 0.00 90 1017.8
20220125165645 48 0 0.0 0.0 0.00 0.08 0.00 90 1017.8
20220125165130 48 0 0.0 0.0 0.00 0.08 0.00 91 1017.7
20220125164615 48 0 0.0 1.0 0.00 0.08 0.00 91 1017.8
20220125164100 48 0 0.0 1.0 0.00 0.08 0.00 91 1017.8
20220125163545 48 0 0.0 0.0 0.00 0.08 0.00 91 1017.8
20220125163030 47 0 0.0 0.0 0.00 0.08 0.00 91 1017.8
20220125162515 47 0 0.0 0.0 0.00 0.08 0.00 91 1017.7
20220125162001 47 0 0.0 0.0 0.00 0.08 0.00 91 1017.6
20220125160931 47 0 0.0 0.0 0.00 0.08 0.00 91 1017.4
20220125160415 47 0 0.0 0.0 0.00 0.08 0.00 91 1017.3
20220125155901 47 0 0.0 0.0 0.00 0.08 0.00 91 1017.4
20220125155346 47 0 0.0 0.0 0.00 0.08 0.00 91 1017.5
20220125154831 47 0 0.0 0.0 0.00 0.08 0.00 91 1017.4
20220125154316 46 0 0.0 0.0 0.00 0.08 0.00 91 1017.2
20220125153801 46 0 0.0 0.0 0.00 0.08 0.00 92 1017.2
20220125153246 46 0 0.0 0.0 0.00 0.08 0.00 91 1017.1
20220125152731 46 0 0.0 0.0 0.00 0.08 0.00 91 1017.0
20220125152216 46 0 0.0 0.0 0.00 0.08 0.00 91 1017.0
20220125151701 46 0 0.0 0.0 0.00 0.08 0.00 91 1016.8
20220125151146 46 0 0.0 0.0 0.00 0.08 0.00 91 1016.8
20220125150631 46 0 0.0 0.0 0.00 0.08 0.00 91 1016.7
20220125150116 46 0 0.0 0.0 0.00 0.10 0.00 91 1016.7
20220125145601 46 0 0.0 0.0 0.00 0.10 0.00 91 1016.6
20220125145046 46 0 0.0 0.0 0.00 0.10 0.00 91 1016.6
20220125144531 46 0 0.0 1.0 0.00 0.10 0.00 91 1016.5
20220125143501 46 0 0.0 1.0 0.00 0.10 0.00 91 1016.3
20220125142946 46 0 0.0 1.0 0.00 0.10 0.00 91 1016.2
20220125141916 46 0 0.0 2.0 0.00 0.10 0.00 91 1016.0
20220125141401 46 0 0.0 2.0 0.00 0.10 0.00 91 1015.9
20220125140846 46 0 0.0 2.0 0.00 0.10 0.00 91 1015.8
20220125140331 46 0 0.0 0.0 0.00 0.10 0.00 91 1015.8
20220125135305 46 0 0.0 1.0 0.00 0.10 0.00 91 1015.5
20220125134231 46 0 0.0 0.0 0.00 0.10 0.00 91 1015.1
20220125133716 46 0 0.0 0.0 0.00 0.10 0.00 91 1015.0
20220125133201 46 0 0.0 0.0 0.00 0.10 0.00 91 1014.9
20220125132131 46 0 0.0 0.0 0.00 0.11 0.00 91 1014.7
20220125131616 46 0 0.0 0.0 0.00 0.11 0.00 91 1014.6
20220125131101 46 0 0.0 0.0 0.00 0.11 0.00 91 1014.6
20220125130546 46 0 0.0 0.0 0.00 0.11 0.00 91 1014.6
20220125130031 46 0 0.0 2.0 0.00 0.11 0.00 91 1014.6
20220125125001 46 0 0.0 0.0 0.00 0.11 0.00 91 1014.4
20220125124446 46 0 0.0 0.0 0.00 0.11 0.00 91 1014.2
20220125123931 46 0 0.0 0.0 0.00 0.11 0.00 91 1014.1
20220125123416 47 0 0.0 0.0 0.00 0.11 0.00 91 1014.0
20220125122901 47 0 0.0 0.0 0.00 0.11 0.00 91 1013.9
20220125122346 47 0 0.0 0.0 0.00 0.11 0.00 91 1013.9
20220125121831 47 0 0.0 0.0 0.00 0.12 0.00 91 1013.8
20220125121316 47 0 0.0 0.0 0.00 0.12 0.00 91 1013.7
20220125120802 47 0 0.0 0.0 0.00 0.12 0.00 91 1013.5